Tracking 19817 objects as of 20-Aug-2019
HD Live streaming from Space Station
objects crossing your sky now

FENGYUN 1C DEB


FENGYUN 1C DEB is no longer on orbit


NORAD ID: 36135
Int'l Code: 1999-025DRG
Perigee: N/A
Apogee: N/A
Inclination: N/A
Period: N/A
Semi major axis: N/A
RCS: N/A
Launch date: May 10, 1999
Source: People's Republic of China (PRC)
Launch site: Taiyaun Space Center, China (TSC)
Decay date: 2018-02-22

Note: This is SATELLITE DEBRIS
aabbcc
Your satellite tracking list
Your tracking list is empty




NASA's NSSDC Master Catalog

Two Line Element Set (TLE):
1 36135U 99025DRG 14290.56686771  .00022965  00000-0  52139-2 0  9991
2 36135  98.9354  50.7841 0055965  14.8698 345.4139 14.55030431299778
Source of the keplerian elements: AFSPC